Location: Moscow
(55.7500°N, 37.5830°E)
Time: 15:01:53
(UTC+03:00)

Vanguard 1 - Pass Details

Date: 04 December 2021
Orbit: 652 x 3830 km, 34.2° (Epoch: 25 January)

Event Time Altitude Azimuth Distance (km) Brightness Sun altitude
Exits shadow 23:57:51 10° 101° (E) 6,448 14.0 -56.3°
Drops below altitude 10° 23:57:51 10° 101° (E) 6,449 14.0 -56.3°
Sets 00:03:16 0° 92° (E) 7,129 14.4 -56.5°
